| time (UTC) | temp F | wind direction | speed MPH | gust MPH | rain 1hr in | rain 24hr in | rain mn in | humidity % | barometer mb |
| 20260504202539 | 57 | 263 | 9.0 | 17.0 | 0.00 | 0.03 | 0.03 | 66 | 1002.2 |
| 20260504202043 | 57 | 238 | 8.0 | 20.0 | 0.00 | 0.03 | 0.03 | 65 | 1002.1 |
| 20260504201552 | 56 | 258 | 10.0 | 20.0 | 0.00 | 0.03 | 0.03 | 66 | 1002.1 |
| 20260504201038 | 55 | 230 | 11.0 | 18.0 | 0.00 | 0.03 | 0.03 | 67 | 1002.3 |
| 20260504200538 | 56 | 231 | 10.0 | 18.0 | 0.00 | 0.03 | 0.03 | 66 | 1002.2 |
| 20260504200100 | 55 | 229 | 12.0 | 20.0 | 0.00 | 0.03 | 0.03 | 67 | 1002.2 |
| 20260504195538 | 55 | 238 | 12.0 | 24.0 | 0.00 | 0.03 | 0.03 | 67 | 1002.2 |
| 20260504195038 | 55 | 249 | 13.0 | 24.0 | 0.00 | 0.03 | 0.03 | 67 | 1002.2 |
| 20260504194553 | 55 | 246 | 8.0 | 24.0 | 0.00 | 0.03 | 0.03 | 68 | 1002.1 |
| 20260504194038 | 55 | 251 | 11.0 | 24.0 | 0.00 | 0.03 | 0.03 | 67 | 1002.1 |
| 20260504193538 | 55 | 224 | 12.0 | 23.0 | 0.00 | 0.03 | 0.03 | 67 | 1002.2 |
| 20260504193045 | 55 | 214 | 15.0 | 23.0 | 0.00 | 0.03 | 0.03 | 68 | 1002.1 |
| 20260504192538 | 55 | 240 | 12.0 | 23.0 | 0.00 | 0.03 | 0.03 | 70 | 1001.9 |
| 20260504192038 | 55 | 242 | 14.0 | 23.0 | 0.00 | 0.03 | 0.03 | 69 | 1002.0 |
| 20260504191605 | 55 | 239 | 9.0 | 20.0 | 0.00 | 0.03 | 0.03 | 70 | 1002.2 |
| 20260504191039 | 55 | 241 | 11.0 | 20.0 | 0.00 | 0.03 | 0.03 | 71 | 1002.1 |
| 20260504190539 | 54 | 269 | 13.0 | 23.0 | 0.00 | 0.03 | 0.03 | 70 | 1002.2 |
| 20260504190049 | 54 | 236 | 12.0 | 26.0 | 0.00 | 0.03 | 0.03 | 71 | 1002.2 |
| 20260504185536 | 54 | 225 | 17.0 | 26.0 | 0.00 | 0.03 | 0.03 | 71 | 1002.1 |
| 20260504185041 | 54 | 220 | 12.0 | 23.0 | 0.00 | 0.03 | 0.03 | 72 | 1002.3 |
| 20260504184549 | 54 | 268 | 11.0 | 23.0 | 0.00 | 0.03 | 0.03 | 72 | 1002.3 |
| 20260504184038 | 54 | 238 | 11.0 | 23.0 | 0.00 | 0.03 | 0.03 | 72 | 1002.2 |
| 20260504183540 | 54 | 250 | 12.0 | 23.0 | 0.00 | 0.03 | 0.03 | 71 | 1002.4 |
| 20260504183045 | 54 | 243 | 8.0 | 20.0 | 0.00 | 0.03 | 0.03 | 73 | 1002.3 |
| 20260504182541 | 53 | 243 | 11.0 | 22.0 | 0.00 | 0.03 | 0.03 | 72 | 1002.4 |
| 20260504182040 | 53 | 231 | 9.0 | 22.0 | 0.00 | 0.03 | 0.03 | 73 | 1002.4 |
| 20260504181556 | 53 | 245 | 13.0 | 26.0 | 0.00 | 0.03 | 0.03 | 72 | 1002.3 |
| 20260504181040 | 53 | 268 | 13.0 | 26.0 | 0.00 | 0.03 | 0.03 | 71 | 1002.3 |
| 20260504180540 | 53 | 227 | 14.0 | 24.0 | 0.00 | 0.03 | 0.03 | 73 | 1002.2 |
| 20260504180051 | 53 | 262 | 10.0 | 24.0 | 0.00 | 0.03 | 0.03 | 73 | 1002.1 |
| 20260504175541 | 53 | 212 | 13.0 | 24.0 | 0.00 | 0.03 | 0.03 | 73 | 1002.3 |
| 20260504175040 | 52 | 224 | 13.0 | 27.0 | 0.00 | 0.03 | 0.03 | 75 | 1002.3 |
| 20260504174556 | 52 | 214 | 13.0 | 27.0 | 0.00 | 0.03 | 0.03 | 76 | 1002.2 |
| 20260504174041 | 51 | 236 | 13.0 | 27.0 | 0.00 | 0.03 | 0.03 | 76 | 1002.2 |
| 20260504173541 | 51 | 247 | 12.0 | 25.0 | 0.00 | 0.03 | 0.03 | 76 | 1002.4 |
| 20260504173103 | 51 | 253 | 12.0 | 23.0 | 0.00 | 0.03 | 0.03 | 75 | 1002.5 |
| 20260504172543 | 51 | 240 | 12.0 | 20.0 | 0.00 | 0.03 | 0.03 | 76 | 1002.5 |
| 20260504172041 | 50 | 242 | 10.0 | 20.0 | 0.00 | 0.03 | 0.03 | 78 | 1002.6 |
| 20260504171551 | 50 | 222 | 11.0 | 20.0 | 0.00 | 0.03 | 0.03 | 77 | 1002.5 |
| 20260504171041 | 50 | 238 | 9.0 | 16.0 | 0.00 | 0.03 | 0.03 | 79 | 1002.5 |
| 20260504170541 | 50 | 240 | 6.0 | 15.0 | 0.00 | 0.03 | 0.03 | 80 | 1002.5 |
| 20260504151040 | 50 | 284 | 2.0 | 9.0 | 0.00 | 0.00 | 0.00 | 69 | 1002.1 |
| 20260504150540 | 50 | 226 | 0.0 | 6.0 | 0.00 | 0.00 | 0.00 | 68 | 1002.1 |
| 20260504141040 | 49 | 328 | 1.0 | 6.0 | 0.00 | 0.00 | 0.00 | 65 | 1002.7 |
| 20260504140540 | 50 | 64 | 1.0 | 6.0 | 0.00 | 0.00 | 0.00 | 64 | 1002.7 |
| 20260504130540 | 45 | 223 | 1.0 | 3.0 | 0.00 | 0.00 | 0.00 | 65 | 1003.5 |
| 20260504110540 | 41 | 252 | 4.0 | 8.0 | 0.00 | 0.00 | 0.00 | 62 | 1004.1 |
| 20260504100542 | 40 | 222 | 4.0 | 8.0 | 0.00 | 0.00 | 0.00 | 64 | 1004.1 |
| 20260504090105 | 38 | 229 | 3.0 | 5.0 | 0.00 | 0.00 | 0.00 | 65 | 1003.4 |
| 20260504081552 | 38 | 251 | 3.0 | 6.0 | 0.00 | 0.00 | 0.00 | 65 | 1003.6 |
| 20260504081038 | 38 | 250 | 3.0 | 6.0 | 0.00 | 0.00 | 0.00 | 65 | 1003.5 |
| 20260504080538 | 38 | 236 | 2.0 | 6.0 | 0.00 | 0.00 | 0.00 | 65 | 1003.6 |
| 20260504050539 | 40 | 199 | 5.0 | 10.0 | 0.00 | 0.00 | 0.00 | 63 | 1003.2 |
| 20260504045541 | 40 | 222 | 4.0 | 10.0 | 0.00 | 0.01 | 0.00 | 64 | 1003.2 |
| 20260504045038 | 39 | 226 | 5.0 | 14.0 | 0.00 | 0.01 | 0.00 | 64 | 1003.3 |
| 20260504044557 | 39 | 245 | 5.0 | 14.0 | 0.00 | 0.01 | 0.00 | 64 | 1003.3 |
| 20260504044038 | 39 | 222 | 2.0 | 10.0 | 0.00 | 0.01 | 0.00 | 65 | 1003.3 |
| 20260504043539 | 39 | 229 | 5.0 | 10.0 | 0.00 | 0.01 | 0.00 | 64 | 1003.4 |
| 20260504043052 | 39 | 256 | 4.0 | 10.0 | 0.00 | 0.01 | 0.00 | 64 | 1003.4 |
| 20260504042544 | 39 | 226 | 4.0 | 12.0 | 0.00 | 0.01 | 0.00 | 64 | 1003.4 |
| 20260504042039 | 39 | 252 | 4.0 | 12.0 | 0.00 | 0.01 | 0.00 | 65 | 1003.3 |
| 20260504041549 | 39 | 219 | 6.0 | 11.0 | 0.00 | 0.01 | 0.00 | 65 | 1003.2 |
| 20260504041038 | 39 | 250 | 5.0 | 11.0 | 0.00 | 0.01 | 0.00 | 65 | 1003.2 |
| 20260504040539 | 39 | 271 | 5.0 | 10.0 | 0.00 | 0.01 | 0.00 | 65 | 1003.2 |
| 20260504040109 | 39 | 249 | 5.0 | 11.0 | 0.00 | 0.01 | 0.00 | 65 | 1003.2 |
| 20260504035538 | 39 | 249 | 5.0 | 11.0 | 0.00 | 0.01 | 0.01 | 65 | 1003.1 |
| 20260504035038 | 39 | 245 | 4.0 | 12.0 | 0.00 | 0.01 | 0.01 | 65 | 1003.1 |
| 20260504034550 | 39 | 236 | 6.0 | 12.0 | 0.00 | 0.01 | 0.01 | 65 | 1003.1 |
| 20260504034036 | 39 | 226 | 5.0 | 12.0 | 0.00 | 0.01 | 0.01 | 65 | 1003.0 |
| 20260504033540 | 39 | 276 | 6.0 | 12.0 | 0.00 | 0.01 | 0.01 | 65 | 1003.0 |
| 20260504033053 | 39 | 222 | 5.0 | 12.0 | 0.00 | 0.01 | 0.01 | 65 | 1002.9 |
| 20260504032539 | 39 | 266 | 7.0 | 13.0 | 0.00 | 0.01 | 0.01 | 65 | 1002.9 |
| 20260504032038 | 39 | 280 | 4.0 | 13.0 | 0.00 | 0.01 | 0.01 | 64 | 1002.9 |
| 20260504031552 | 39 | 224 | 6.0 | 13.0 | 0.00 | 0.01 | 0.01 | 65 | 1002.9 |
| 20260504031039 | 39 | 233 | 4.0 | 11.0 | 0.00 | 0.01 | 0.01 | 65 | 1002.9 |
| 20260504030539 | 39 | 256 | 7.0 | 11.0 | 0.00 | 0.01 | 0.01 | 64 | 1002.9 |
| 20260504030047 | 39 | 270 | 6.0 | 11.0 | 0.00 | 0.01 | 0.01 | 65 | 1002.9 |
| 20260504025538 | 39 | 231 | 4.0 | 10.0 | 0.00 | 0.01 | 0.01 | 65 | 1003.0 |
| 20260504025038 | 39 | 226 | 6.0 | 10.0 | 0.00 | 0.01 | 0.01 | 65 | 1002.9 |
| 20260504024544 | 39 | 231 | 5.0 | 9.0 | 0.00 | 0.01 | 0.01 | 65 | 1003.0 |
| 20260504024039 | 39 | 226 | 4.0 | 9.0 | 0.00 | 0.01 | 0.01 | 65 | 1002.9 |
| 20260504023539 | 39 | 235 | 4.0 | 8.0 | 0.00 | 0.01 | 0.01 | 65 | 1003.0 |
| 20260504023050 | 39 | 226 | 4.0 | 8.0 | 0.00 | 0.01 | 0.01 | 65 | 1003.0 |
| 20260504022538 | 39 | 275 | 4.0 | 11.0 | 0.00 | 0.01 | 0.01 | 65 | 1003.0 |
| 20260504022037 | 39 | 233 | 5.0 | 11.0 | 0.00 | 0.01 | 0.01 | 65 | 1003.0 |
| 20260504021550 | 39 | 233 | 4.0 | 10.0 | 0.00 | 0.01 | 0.01 | 65 | 1003.0 |
| 20260504021042 | 39 | 264 | 6.0 | 13.0 | 0.00 | 0.01 | 0.01 | 64 | 1003.0 |
| 20260504020538 | 39 | 271 | 4.0 | 13.0 | 0.00 | 0.01 | 0.01 | 65 | 1003.0 |
| 20260504020051 | 39 | 252 | 5.0 | 9.0 | 0.00 | 0.01 | 0.01 | 64 | 1003.0 |
| 20260504015536 | 39 | 264 | 3.0 | 10.0 | 0.00 | 0.01 | 0.01 | 64 | 1003.1 |
| 20260504015039 | 40 | 239 | 4.0 | 10.0 | 0.00 | 0.01 | 0.01 | 64 | 1003.1 |
| 20260504014548 | 40 | 264 | 4.0 | 10.0 | 0.00 | 0.01 | 0.01 | 63 | 1003.1 |
| 20260504014039 | 40 | 222 | 4.0 | 10.0 | 0.00 | 0.01 | 0.01 | 63 | 1003.0 |
| 20260504013538 | 40 | 263 | 5.0 | 10.0 | 0.00 | 0.01 | 0.01 | 62 | 1003.0 |
| 20260504013058 | 40 | 227 | 3.0 | 6.0 | 0.00 | 0.01 | 0.01 | 62 | 1003.0 |
| 20260504012539 | 40 | 250 | 2.0 | 6.0 | 0.00 | 0.01 | 0.01 | 62 | 1003.1 |
| 20260504012040 | 40 | 236 | 3.0 | 6.0 | 0.00 | 0.01 | 0.01 | 62 | 1003.1 |
| 20260504011543 | 40 | 242 | 2.0 | 6.0 | 0.00 | 0.01 | 0.01 | 62 | 1003.0 |
| 20260504011038 | 40 | 271 | 2.0 | 9.0 | 0.00 | 0.01 | 0.01 | 62 | 1003.0 |
| 20260504010537 | 40 | 250 | 4.0 | 9.0 | 0.00 | 0.01 | 0.01 | 61 | 1002.9 |
| 20260504010058 | 40 | 264 | 4.0 | 9.0 | 0.00 | 0.01 | 0.01 | 61 | 1002.9 |
| 20260504005538 | 40 | 253 | 2.0 | 14.0 | 0.00 | 0.01 | 0.01 | 61 | 1002.9 |
| 20260504005036 | 41 | 262 | 5.0 | 14.0 | 0.00 | 0.01 | 0.01 | 60 | 1002.7 |
| 20260504004545 | 40 | 276 | 2.0 | 7.0 | 0.00 | 0.01 | 0.01 | 60 | 1002.7 |
| 20260504004039 | 41 | 248 | 3.0 | 10.0 | 0.00 | 0.01 | 0.01 | 60 | 1002.6 |
| 20260504003538 | 41 | 268 | 3.0 | 10.0 | 0.00 | 0.01 | 0.01 | 59 | 1002.6 |
| 20260504003049 | 41 | 267 | 6.0 | 11.0 | 0.00 | 0.01 | 0.01 | 58 | 1002.4 |
| 20260504002538 | 41 | 275 | 5.0 | 11.0 | 0.00 | 0.01 | 0.01 | 58 | 1002.3 |
| 20260504002038 | 41 | 256 | 3.0 | 11.0 | 0.00 | 0.01 | 0.01 | 58 | 1002.4 |
| 20260504001548 | 42 | 296 | 4.0 | 12.0 | 0.00 | 0.01 | 0.01 | 57 | 1002.4 |
| 20260504001038 | 42 | 276 | 6.0 | 12.0 | 0.00 | 0.01 | 0.01 | 57 | 1002.3 |
| 20260504000539 | 42 | 229 | 5.0 | 12.0 | 0.00 | 0.01 | 0.01 | 56 | 1002.1 |
| 20260504000051 | 42 | 263 | 6.0 | 10.0 | 0.00 | 0.01 | 0.01 | 56 | 1002.0 |
| 20260503235540 | 42 | 232 | 4.0 | 13.0 | 0.00 | 0.01 | 0.01 | 56 | 1002.0 |
| 20260503235041 | 42 | 240 | 8.0 | 16.0 | 0.00 | 0.01 | 0.01 | 56 | 1001.9 |
| 20260503234550 | 42 | 274 | 7.0 | 16.0 | 0.00 | 0.01 | 0.01 | 56 | 1001.9 |
| 20260503234040 | 43 | 283 | 9.0 | 16.0 | 0.00 | 0.01 | 0.01 | 55 | 1001.9 |
| 20260503233541 | 43 | 265 | 6.0 | 15.0 | 0.00 | 0.01 | 0.01 | 55 | 1001.8 |
| 20260503233048 | 43 | 248 | 5.0 | 17.0 | 0.00 | 0.01 | 0.01 | 55 | 1001.8 |
| 20260503232540 | 43 | 269 | 8.0 | 19.0 | 0.00 | 0.01 | 0.01 | 55 | 1001.8 |
| 20260503232040 | 43 | 271 | 11.0 | 19.0 | 0.00 | 0.01 | 0.01 | 53 | 1001.6 |
| 20260503231548 | 43 | 264 | 11.0 | 20.0 | 0.00 | 0.01 | 0.01 | 53 | 1001.5 |
| 20260503231041 | 44 | 267 | 10.0 | 20.0 | 0.00 | 0.01 | 0.01 | 52 | 1001.6 |
| 20260503230542 | 44 | 245 | 8.0 | 25.0 | 0.00 | 0.01 | 0.01 | 52 | 1001.5 |
| 20260503230058 | 44 | 274 | 12.0 | 25.0 | 0.00 | 0.01 | 0.01 | 52 | 1001.5 |
| 20260503225540 | 44 | 288 | 10.0 | 25.0 | 0.00 | 0.01 | 0.01 | 52 | 1001.5 |
| 20260503225040 | 44 | 269 | 5.0 | 15.0 | 0.00 | 0.01 | 0.01 | 54 | 1001.6 |
| 20260503224552 | 45 | 266 | 7.0 | 15.0 | 0.00 | 0.01 | 0.01 | 53 | 1001.5 |
| 20260503224041 | 45 | 275 | 8.0 | 19.0 | 0.00 | 0.01 | 0.01 | 53 | 1001.5 |
| 20260503223540 | 45 | 268 | 12.0 | 19.0 | 0.00 | 0.01 | 0.01 | 52 | 1001.5 |
| 20260503223050 | 45 | 225 | 8.0 | 18.0 | 0.00 | 0.01 | 0.01 | 54 | 1001.4 |
| 20260503222539 | 44 | 305 | 6.0 | 15.0 | 0.00 | 0.01 | 0.01 | 53 | 1001.3 |
| 20260503222040 | 44 | 266 | 10.0 | 22.0 | 0.00 | 0.01 | 0.01 | 53 | 1001.4 |
| 20260503221554 | 44 | 273 | 10.0 | 22.0 | 0.00 | 0.01 | 0.01 | 52 | 1001.4 |
| 20260503221040 | 44 | 334 | 10.0 | 18.0 | 0.00 | 0.01 | 0.01 | 52 | 1001.4 |
| 20260503220540 | 44 | 258 | 10.0 | 21.0 | 0.00 | 0.01 | 0.01 | 53 | 1001.3 |
| 20260503215540 | 44 | 276 | 15.0 | 23.0 | 0.00 | 0.01 | 0.01 | 51 | 1001.2 |
| 20260503215041 | 44 | 270 | 13.0 | 23.0 | 0.00 | 0.01 | 0.01 | 52 | 1001.3 |
| 20260503214548 | 44 | 275 | 13.0 | 23.0 | 0.00 | 0.01 | 0.01 | 52 | 1001.1 |
| 20260503214044 | 44 | 274 | 12.0 | 27.0 | 0.00 | 0.01 | 0.01 | 52 | 1001.1 |
| 20260503213541 | 44 | 212 | 17.0 | 27.0 | 0.00 | 0.01 | 0.01 | 51 | 1001.0 |
| 20260503213053 | 45 | 259 | 9.0 | 17.0 | 0.00 | 0.01 | 0.01 | 52 | 1001.1 |
| 20260503212540 | 45 | 280 | 12.0 | 25.0 | 0.00 | 0.01 | 0.01 | 52 | 1001.1 |
| 20260503212039 | 45 | 264 | 11.0 | 25.0 | 0.00 | 0.01 | 0.01 | 53 | 1001.1 |
| 20260503211552 | 45 | 240 | 15.0 | 24.0 | 0.00 | 0.01 | 0.01 | 51 | 1001.0 |
| 20260503211039 | 46 | 276 | 16.0 | 24.0 | 0.00 | 0.01 | 0.01 | 51 | 1001.0 |
| 20260503210540 | 46 | 251 | 12.0 | 19.0 | 0.00 | 0.01 | 0.01 | 50 | 1000.9 |
| 20260503210050 | 46 | 270 | 11.0 | 19.0 | 0.00 | 0.01 | 0.01 | 50 | 1000.9 |
| 20260503205539 | 47 | 302 | 10.0 | 20.0 | 0.00 | 0.01 | 0.01 | 49 | 1000.9 |
| 20260503205038 | 47 | 285 | 11.0 | 21.0 | 0.00 | 0.01 | 0.01 | 49 | 1000.8 |
| 20260503204550 | 47 | 272 | 10.0 | 21.0 | 0.00 | 0.01 | 0.01 | 49 | 1000.8 |
| 20260503204038 | 47 | 248 | 11.0 | 18.0 | 0.00 | 0.01 | 0.01 | 49 | 1000.8 |
| 20260503203538 | 47 | 240 | 8.0 | 20.0 | 0.00 | 0.01 | 0.01 | 48 | 1000.7 |
| 20260503203053 | 47 | 250 | 12.0 | 20.0 | 0.00 | 0.01 | 0.01 | 48 | 1000.6 |